Location: Newark
(44.2003°N, 3.2583°E)
Time: 10:52:18
(UTC+00:00)

Explorer 7 - Pass Details

Date: 27 October 2019
Orbit: 485 x 680 km, 50.3° (Epoch: 21 November)

Event Time Altitude Azimuth Distance (km) Brightness Sun altitude
Rises 13:54:51 0° 297° (WNW) 2,554 10.4 24.3°
Reaches altitude 10° 13:57:00 10° 296° (WNW) 1,679 9.5 24.0°
Maximum altitude 14:00:46 75° 211° (SSW) 519 7.4 23.6°
Drops below altitude 10° 14:04:40 10° 126° (SE) 1,733 9.4 23.1°
Sets 14:06:55 0° 125° (SE) 2,646 10.2 22.9°
